Weather History for Charleston, SC

Change the Weather History Date:

Tuesday, February 5, 2013

  Actual Average (KCHS) Record (KCHS)
Temperature  
Mean Temperature 52 °F 50 °F  
Max Temperature 68 °F 61 °F 81 °F (2012)
Min Temperature 35 °F 39 °F 16 °F (1996)
Degree Days  
Heating Degree Days 14 15  
Month to date heating degree days 77  
Since 1 July heating degree days 1336  
Cooling Degree Days 0 0  
Month to date cooling degree days 0  
Year to date cooling degree days 2  
Growing Degree Days 2 (Base 50)    
Moisture  
Dew Point 43 °F    
Average Humidity 72    
Maximum Humidity 93    
Minimum Humidity 40    
Precipitation  
Precipitation 0.00 in 0.11 in 1.15 in (1945)
Month to date precipitation 0.56  
Year to date precipitation 4.27  
Sea Level Pressure  
Sea Level Pressure 30.03 in    
Wind  
Wind Speed 3 mph (SW)    
Max Wind Speed 16 mph    
Max Gust Speed 21 mph    
Visibility 10 miles    
Events      
T = Trace of Precipitation, MM = Missing Value Source: NWS Daily Summary

Daily Weather History Graph

Daily Weather History Graph

Search for Another Location

Airport:

Trip Planner

Search our weather history database for the weather conditions in past years. The results will help you decide how hot, cold, wet, or windy it might be!

Date:

Astronomy

Feb. 05, 2013 Rise Set
Actual Time 7:11 AM EST 5:56 PM EST
Civil Twilight 6:46 AM EST 6:22 PM EST
Nautical Twilight 6:16 AM EST 6:51 PM EST
Astronomical Twilight 5:47 AM EST 7:20 PM EST
Moon 2:46 AM EST (2/5) 1:18 PM EST (2/5)
Length of Visible Light 11h 36m
Length of Day
10h 45m
Waning Crescent, 27% of the Moon is Illuminated
Feb 5
Waning Crescent
Feb 10
New
Feb 17
First Quarter
Feb 25
Full
Mar 4
Last Quarter

Hourly Weather History & Observations

Time (EST) Temp. Dew Point Humidity Pressure Visibility Wind Dir Wind Speed Gust Speed Precip Events Conditions
12:15 AM 39.2 °F 35.6 °F 87% 30.09 in 10.0 mi Calm Calm - 0.00 in   Clear
12:55 AM 41.0 °F 35.6 °F 81% 30.07 in 10.0 mi Calm Calm - 0.00 in   Clear
1:15 AM 41.0 °F 35.6 °F 81% 30.07 in 10.0 mi Calm Calm - 0.00 in   Clear
1:35 AM 39.2 °F 35.6 °F 87% 30.06 in 10.0 mi Calm Calm - 0.00 in   Clear
2:15 AM 39.2 °F 35.6 °F 87% 30.04 in 10.0 mi Calm Calm - 0.00 in   Clear
2:35 AM 39.2 °F 35.6 °F 87% 30.04 in 10.0 mi Calm Calm - 0.00 in   Clear
2:55 AM 37.4 °F 35.6 °F 93% 30.04 in 10.0 mi Calm Calm - 0.00 in   Clear
3:15 AM 37.4 °F 35.6 °F 93% 30.03 in 10.0 mi Calm Calm - 0.00 in   Clear
3:35 AM 37.4 °F 33.8 °F 87% 30.03 in 10.0 mi Calm Calm - 0.00 in   Clear
4:15 AM 37.4 °F 33.8 °F 87% 30.03 in 10.0 mi Calm Calm - 0.00 in   Clear
4:35 AM 37.4 °F 33.8 °F 87% 30.02 in 10.0 mi Calm Calm - 0.00 in   Clear
4:55 AM 37.4 °F 33.8 °F 87% 30.02 in 10.0 mi Calm Calm - 0.00 in   Clear
5:15 AM 37.4 °F 33.8 °F 87% 30.03 in 10.0 mi Calm Calm - 0.00 in   Clear
5:35 AM 37.4 °F 33.8 °F 87% 30.03 in 10.0 mi Calm Calm - 0.00 in   Clear
5:55 AM 37.4 °F 33.8 °F 87% 30.03 in 10.0 mi Calm Calm - 0.00 in   Clear
6:15 AM 37.4 °F 33.8 °F 87% 30.03 in 9.0 mi Calm Calm - 0.00 in   Clear
6:35 AM 35.6 °F 33.8 °F 93% 30.04 in 8.0 mi Calm Calm - 0.00 in   Clear
7:15 AM 37.4 °F 33.8 °F 87% 30.05 in 10.0 mi Calm Calm - 0.00 in   Clear
7:35 AM 37.4 °F 33.8 °F 87% 30.07 in 10.0 mi Calm Calm - 0.00 in   Clear
7:55 AM 39.2 °F 35.6 °F 87% 30.08 in 10.0 mi Calm Calm - 0.00 in   Clear
8:15 AM 39.2 °F 37.4 °F 93% 30.08 in 10.0 mi Calm Calm - 0.00 in   Clear
8:35 AM 42.8 °F 39.2 °F 87% 30.08 in 10.0 mi Calm Calm - 0.00 in   Clear
8:55 AM 51.8 °F 44.6 °F 76% 30.08 in 10.0 mi SW 4.6 mph - 0.00 in   Clear
9:15 AM 51.8 °F 44.6 °F 76% 30.08 in 10.0 mi WSW 5.8 mph - 0.00 in   Clear
9:35 AM 53.6 °F 46.4 °F 77% 30.10 in 10.0 mi WSW 5.8 mph - 0.00 in   Clear
10:15 AM 57.2 °F 46.4 °F 67% 30.09 in 10.0 mi West 8.1 mph - 0.00 in   Clear
10:35 AM 59.0 °F 46.4 °F 63% 30.08 in 10.0 mi West 10.4 mph - 0.00 in   Partly Cloudy
10:55 AM 60.8 °F 46.4 °F 59% 30.08 in 10.0 mi West 9.2 mph - 0.00 in   Clear
11:15 AM 62.6 °F 46.4 °F 55% 30.08 in 10.0 mi West 8.1 mph - 0.00 in   Clear
11:35 AM 64.4 °F 46.4 °F 52% 30.07 in 10.0 mi West 11.5 mph - 0.00 in   Clear
11:55 AM 64.4 °F 46.4 °F 52% 30.06 in 10.0 mi West 9.2 mph - 0.00 in   Clear
12:15 PM 64.4 °F 44.6 °F 49% 30.05 in 10.0 mi WSW 10.4 mph - 0.00 in   Clear
12:35 PM 66.2 °F 44.6 °F 46% 30.04 in 10.0 mi WSW 11.5 mph 20.7 mph 0.00 in   Clear
12:55 PM 66.2 °F 44.6 °F 46% 30.03 in 10.0 mi West 11.5 mph 18.4 mph 0.00 in   Clear
1:15 PM 66.2 °F 44.6 °F 46% 30.02 in 10.0 mi WSW 8.1 mph 19.6 mph 0.00 in   Clear
1:35 PM 68.0 °F 44.6 °F 43% 30.01 in 10.0 mi SW 9.2 mph - 0.00 in   Clear
1:55 PM 68.0 °F 42.8 °F 40% 30.00 in 10.0 mi WSW 6.9 mph - 0.00 in   Clear
2:15 PM 68.0 °F 42.8 °F 40% 29.99 in 10.0 mi WSW 8.1 mph 20.7 mph 0.00 in   Clear
2:35 PM 68.0 °F 46.4 °F 46% 29.98 in 10.0 mi SSW 11.5 mph - 0.00 in   Clear
2:55 PM 66.2 °F 46.4 °F 49% 29.98 in 10.0 mi South 16.1 mph - 0.00 in   Clear
3:15 PM 64.4 °F 48.2 °F 56% 29.98 in 10.0 mi SSW 13.8 mph - 0.00 in   Clear
3:35 PM 62.6 °F 48.2 °F 59% 29.98 in 10.0 mi South 13.8 mph - 0.00 in   Clear
3:55 PM 64.4 °F 48.2 °F 56% 29.98 in 10.0 mi SSW 12.7 mph - 0.00 in   Clear
4:15 PM 62.6 °F 48.2 °F 59% 29.98 in 10.0 mi SW 6.9 mph 17.3 mph 0.00 in   Clear
4:35 PM 62.6 °F 48.2 °F 59% 29.98 in 10.0 mi SW 12.7 mph 16.1 mph 0.00 in   Clear
4:55 PM 62.6 °F 48.2 °F 59% 29.99 in 10.0 mi SSW 9.2 mph - 0.00 in   Clear
5:15 PM 60.8 °F 48.2 °F 63% 29.99 in 10.0 mi SW 11.5 mph - 0.00 in   Clear
5:35 PM 59.0 °F 48.2 °F 67% 29.99 in 10.0 mi SW 10.4 mph - 0.00 in   Clear
5:55 PM 59.0 °F 48.2 °F 67% 29.99 in 10.0 mi SW 5.8 mph 16.1 mph 0.00 in   Clear
6:15 PM 57.2 °F 50.0 °F 77% 30.00 in 10.0 mi SW 8.1 mph - 0.00 in   Clear
6:35 PM 57.2 °F 50.0 °F 77% 30.00 in 10.0 mi SW 8.1 mph - 0.00 in   Clear
7:15 PM 57.2 °F 50.0 °F 77% 30.01 in 10.0 mi SW 5.8 mph - 0.00 in   Clear
7:35 PM 55.4 °F 50.0 °F 82% 30.01 in 10.0 mi SW 6.9 mph - 0.00 in   Clear
7:55 PM 55.4 °F 50.0 °F 82% 30.02 in 10.0 mi SW 6.9 mph - 0.00 in   Clear
8:15 PM 57.2 °F 50.0 °F 77% 30.02 in 10.0 mi SW 9.2 mph - 0.00 in   Clear
9:35 PM 55.4 °F 48.2 °F 77% 30.03 in 10.0 mi SW 6.9 mph - 0.00 in   Clear
10:15 PM 55.4 °F 48.2 °F 77% 30.04 in 10.0 mi SW 3.5 mph - 0.00 in   Clear
10:55 PM 55.4 °F 48.2 °F 77% 30.04 in 10.0 mi SW 4.6 mph - 0.00 in   Clear
11:15 PM 53.6 °F 48.2 °F 82% 30.05 in 10.0 mi Calm Calm - 0.00 in   Clear
11:35 PM 53.6 °F 48.2 °F 82% 30.04 in 10.0 mi Calm Calm - 0.00 in   Clear